Location: Ajisawe
(8.4333°N, 4.3833°E)
Time: 14:47:46
(UTC+00:00)

Meteor 1-31 Rocket - Pass Details

Date: 07 June 2020
Orbit: 521 x 546 km, 97.6° (Epoch: 07 July)

Event Time Altitude Azimuth Distance (km) Brightness Sun altitude
Rises 04:30:03 0° 357° (N) 2,656 6.6 -12.9°
Reaches altitude 10° 04:32:17 10° 348° (NNW) 1,772 5.6 -12.4°
Maximum altitude 04:35:45 34° 282° (WNW) 897 3.5 -11.6°
Enters shadow 04:38:47 13° 220° (SW) 1,609 4.6 -10.9°
